sat.trackr.live / text

‹ back to catalog

ONEWEB-0148

NORAD 48059 · 2021-025T

PAYLOAD ACTIVE UNKNOWN

§ Identity

Operator
Country
UK
Launch date
2021-03-25
Launch site
VOSTO
Launch vehicle
Mass (kg)
RCS (m²)

Purposes: comms

External: N2YO · Heavens-Above · Gunter

§ Orbital elements

Epoch: 2026-09-20T00:55:54.708960Z

Period
109.63 min
Inclination
87.8913°
Eccentricity
0.0001952
Mean motion
13.13469502 rev/d
Perigee alt
1,208.3 km
Apogee alt
1,211.2 km
Semi-major
7,587.9 km
B*
5.3626e-4
RAAN
301.3556°
Arg perigee
111.7796°
Mean anomaly
248.3541°
Rev number
26,606

§ Raw data

ONEWEB-01481 48059U 21025T   26263.03882765  .00000209  00000+0  53626-3 0  99992 48059  87.8913 301.3556 0001952 111.7796 248.3541 13.13469502266067

JSON: /api/v1/satellites/48059 · /tle

For live sub-satellite position, see the globe view (requires WebGL).

§ Visibility from observer

Set your observer location to see the next 7 days of passes ≥ 10°. The values pass through the URL so the page stays shareable.

No JS? Fill the form by hand. The geolocation button needs JavaScript.